|
NORAD ID: 35378 Int'l Code: 2006-046L
Perigee: 591.3 km
Apogee: 868.2 km
Inclination: 97.8 °
Period: 99.2 minutes
Semi major axis: 7100 km
Launch date: October 23, 2006
Source: People's Republic of China (PRC)
Note: This is SATELLITE DEBRIS
Two Line Element Set (TLE):
1 35378U 06046L 13141.13246715 .00003082 00000-0 61996-3 0 5613
2 35378 097.8101 013.5661 0195001 333.5454 182.6136 14.50921254340602
Source:
NASA's NSSDC Master Catalog entry for CZ-4 DEB
|